Regional Weather Roundup
Issued by NWS Little Rock, AR

Home | Current Version | Previous Version | Graphics & Text | Print | Product List | Glossary On
Versions: 1 2 3 4 5 6 7 8 9 10 11 12 13 14 15 16 17 18 19 20 21 22 23 24 25 26 27
000
ASUS44 KLZK 301305
RWRLZK

WEATHER ROUNDUP FOR ARKANSAS
NATIONAL WEATHER SERVICE LITTLE ROCK AR
800 AM CDT SAT JUL 30 2016

NOTE: "FAIR" INDICATES FEW OR NO CLOUDS BELOW 12,000 FEET WITH NO
SIGNIFICANT WEATHER AND/OR OBSTRUCTIONS TO VISIBILITY.

ARZ001-003-010-029-301400-
NORTHWEST ARKANSAS

CITY           SKY/WX    TMP DP  RH WIND       PRES   REMARKS
FAYETTEVILLE   SUNNY     70  70 100 CALM      30.04R
FORT SMITH     PTSUNNY   75  70  84 SE3       30.00R
HARRISON       SUNNY     71  70  96 CALM      30.04S
BENTONVILLE    CLOUDY    73  70  88 SW3       30.04S
ROGERS         CLOUDY    75  72  90 CALM      30.05R
SILOAM SPGS    SUNNY     72  63  73 S5        30.04S
HIGHFILL       CLOUDY    73  73 100 S3        30.03R
SPRINGDALE     SUNNY     73  73 100 S3        30.06R
$$

ARZ004-005-016-301400-
NORTH CENTRAL ARKANSAS

CITY           SKY/WX    TMP DP  RH WIND       PRES   REMARKS
BATESVILLE     PTSUNNY   72  70  94 CALM      30.01S
FLIPPIN        CLOUDY    70  66  88 CALM      29.99S VSB<1/4
MTN HOME       FOG       70  70 100 S3        30.02R VSB<1/4
$$

ARZ040-041-301400-
WEST CENTRAL ARKANSAS

CITY           SKY/WX    TMP DP  RH WIND       PRES   REMARKS
MENA             N/A    N/A N/A N/A MISG        N/A
MOUNT IDA      PTSUNNY   72  71  97 CALM      30.01R
$$

ARZ009-017-025-026-028-301400-
NORTHEAST ARKANSAS

CITY           SKY/WX    TMP DP  RH WIND       PRES   REMARKS
CORNING          N/A     72  72 100 CALM      30.00S VSB 1/4
JONESBORO      CLOUDY    73  72  96 CALM      29.99S FOG
NEWPORT        PTSUNNY   73  73 100 CALM      30.01S
WALNUT RIDGE   SUNNY     73  70  88 CALM      29.98S
BLYTHEVILLE    PTSUNNY   74  72  93 S6        29.99F
$$

ARZ022-023-033-042-044-301400-
CENTRAL ARKANSAS

CITY           SKY/WX    TMP DP  RH WIND       PRES   REMARKS
LITTLE ROCK    MOSUNNY   75  72  90 W7        30.01R
N LITTLE ROCK    N/A     74  73  95 CALM      29.98S
JACKSONVILLE   CLOUDY    74  74 100 S6        30.00R
SEARCY         CLOUDY    73  73 100 CALM      30.14R
HOT SPRINGS    PTSUNNY   73  71  93 CALM      30.03R
RUSSELLVILLE   CLOUDY    75  74  96 CALM      30.00S FOG
$$

ARZ036-301400-
EAST ARKANSAS

CITY           SKY/WX    TMP DP  RH WIND       PRES   REMARKS
WEST MEMPHIS   LGT RAIN  73  72  96 E5        29.99F
$$

ARZ050-053-066-070-073-301400-
SOUTHWEST ARKANSAS

CITY           SKY/WX    TMP DP  RH WIND       PRES   REMARKS
ARKADELPHIA    CLOUDY    72  70  93 CALM      30.03R
CAMDEN         MOSUNNY   73  70  88 CALM      30.02S
TEXARKANA      SUNNY     73  72  96 CALM      30.02R
EL DORADO      CLOUDY    75  73  93 CALM      30.03R
DE QUEEN       CLOUDY    71  71 100 CALM      30.00R FOG
$$

ARZ056-057-069-301400-
SOUTHEAST ARKANSAS

CITY           SKY/WX    TMP DP  RH WIND       PRES   REMARKS
PINE BLUFF     SUNNY     73  71  93 W3        30.01S
STUTTGART      SUNNY     75  70  83 W6        30.00S
MONTICELLO     CLOUDY    77  73  87 W5        30.02R

$$






USA.gov is the U.S. government's official web portal to all federal, state and local government web resources and services.